Regional Weather Roundup
Issued by NWS Newport/Morehead, NC

Current Version | Previous Version | Text Only | Print | Product List | Glossary Off
Versions: 1 2 3 4 5 6 7 8 9 10 11 12 13 14 15 16 17 18 19 20 21 22 23 24 25 26 27 28 29 30 31 32 33 34 35 36 37 38 39 40 41 42 43 44 45 46 47 48 49 50
000 ASUS42 KMHX 190725 RWRMHX WEATHER ROUNDUP FOR EASTERN NORTH CAROLINA NATIONAL WEATHER SERVICE NEWPORT/MOREHEAD CITY NC 300 AM EDT TUE SEP 19 2017 NOTE: "FAIR" INDICATES FEW OR NO CLOUDS BELOW 12,000 FEET WITH NO SIGNIFICANT WEATHER AND/OR OBSTRUCTIONS TO VISIBILITY NCZ015>017-031-032-045>047-102-103-190800- NORTH COAST CITY SKY/WX TMP DP RH WIND PRES REMARKS EDENTON MOCLDY 71 68 90 N12 29.88S ELIZABETH CITY CLOUDY 72 69 90 N17 29.84F KITTY HAWK CLOUDY 72 66 82 N13G23 29.79F MANTEO CLOUDY 73 67 84 N21G30 29.81F $$ NCZ045>047-081-094-103-104-190800- CENTRAL COAST CITY SKY/WX TMP DP RH WIND PRES REMARKS FRISCO CLOUDY 75 70 84 N10G26 29.78F $$ NCZ095-097-098-100-101-190800- SOUTHERN COAST CITY SKY/WX TMP DP RH WIND PRES REMARKS BEAUFORT PTCLDY 72 70 93 N17 29.85F CEDAR ISLAND NOT AVBL JACKSONVILLE PTCLDY 70 69 97 NW8 29.88F PINEY ISLAND N/A N/A N/A N/A NW16G22 29.85S WILMINGTON CLEAR 69 67 93 NW7 29.90F $$ NCZ011>013-027>030-043-044-078>080-089-090>093-098-190800- COASTAL PLAIN CITY SKY/WX TMP DP RH WIND PRES REMARKS AHOSKIE N/A 68 68 98 N7 29.92F CLINTON CLEAR 68 68 100 CALM 29.93F ELIZABETHTOWN NOT AVBL GOLDSBORO CLEAR 69 69 100 NW5 29.91F GREENVILLE CLOUDY 70 68 94 N6 29.93S HAVELOCK CLOUDY 73 70 90 N13 29.88S KENANSVILLE CLEAR 68 66 94 NW6 29.92F KINSTON PTCLDY 68 67 96 NW7 29.91F NEW BERN CLOUDY 71 69 93 N10 29.89S RICHLANDS CLEAR 68 67 96 VRB5 29.91F ROCKY MOUNT PTCLDY 68 67 96 N9 29.93F WASHINGTON CLOUDY 69 67 93 N9 29.89F WHITEVILLE CLEAR 69 66 92 CALM 29.93F $$ AMZ130-135-150-152-154-156-158-170-250-252-270-ANZ085-086-088-633-658-670-190800- MARINE OBSERVATIONS STATION/POSITION TIME TEMP WIND PRES WAVE SWELL AIR SEA DIR/SP/G HT/PER HT/PER (UTC) (F) (DEG/KT/KT) (MB) (FT/S) (FT/S) CHESAPEAKE LIGHT NOT AVBL 64 E VA BEACH 0650 72 72 350/ 29/ 35 1006.0 16/13 13/13 DUCK 0700 74 75 360/ 28/ 33 1008.5 2 E DUCK 0700 76 N/A 13/13 8/13 OREGON INLET 0700 74 75 340/ 21/ 30 1008.3 13E OREGON INLT 0648 74 N/A 14/12 13/12 HATTERAS CG 0700 74 77 340/ 27/ 31 1008.5 DIAMOND BUOY 0650 75 77 340/ 29/ 37 1006.7 13/11 10/11 CAPE LOOKOUT 0700 72 340/ 17/ 20 1010.2 BEAUFORT LAB 0700 72 74 340/ 13/ 19 1010.3 30 SE NEW RVR IN 0608 75 350/ 16/ 21 1011.3 30 SE NEW RVR IN NOT AVBL 27 SE WRIGHTSVLE 0608 76 80 350/ 14/ 19 1012.2 5 SE WRIGHTSVLE 0608 74 78 360/ 14/ 21 1012.6 225 S CAPE HAT 0650 80 80 310/ 17/ 21 1010.0 9/ 9 7/ 9 41 SE CHARLESTON 0700 77 82 300/ 6/ 10 1013.0 $$

USA.gov is the U.S. government's official web portal to all federal, state and local government web resources and services.